Date String (YYYY-MM-DD hh:mm:ss) UTC,Instrument flags,absolute air pressure of the measurement (hPa),sample flow rate (lpm),inlet stack bypass flow (lpm),air temperature of the measurement (°C),ambient temperature measured by the external sensor (°C),aerosol sample conditioner tube jacket temperature (°C),OPC LED temperature (°C),internal box temperature (°C),relative humidity of the measurement (%),span deviation,mass concentration of particles derived from Lorenz-Mie calculation of OPC scattering (μg/m³),mass concentration of particles derived from Lorenz-Mie calculation of OPC scattering (μg/m³),mass concentration of particles derived from Lorenz-Mie calculation of OPC scattering (μg/m³)
DateTimeUTC,F1_M11,P_M11,Q1_M11,Q2_M11,T1_M11,T2_M11,T3_M11,T4_M11,T5_M11,U1_M11,ZSPAN_M11,X0_M11,X2_M11,X1_M11
2023-12-22 10:00:00,SystemResetWarning,0832.6,5.01,000.00,023.1,022.3,000.0,031.4,024.5,13.4,0000.0,0003.25,0001.41,0001.17
2023-12-22 10:01:00,SystemResetWarning,0832.5,5.00,000.00,023.1,022.3,000.0,031.4,024.5,13.4,0000.0,0003.82,0001.41,0001.19
2023-12-22 10:02:00,SystemResetWarning,0832.6,5.00,000.00,023.1,022.3,000.0,031.4,024.5,13.4,0000.0,0004.51,0001.48,0001.23
2023-12-22 10:03:00,SystemResetWarning,0832.5,5.00,000.00,023.1,022.3,000.0,031.4,024.5,13.4,0000.0,0004.60,0001.52,0001.29
2023-12-22 10:04:00,SystemResetWarning,0832.5,5.00,000.00,023.1,022.3,000.0,031.4,024.5,13.4,0000.0,0004.83,0001.65,0001.35
2023-12-22 10:05:00,SystemResetWarning,0832.5,5.00,000.00,023.1,022.3,000.0,031.4,024.5,13.4,0000.0,0004.97,0001.72,0001.40
2023-12-22 10:06:00,SystemResetWarning,0832.5,5.01,000.00,023.1,022.3,000.0,031.4,024.5,13.4,0000.0,0004.94,0001.72,0001.42
2023-12-22 10:07:00,SystemResetWarning,0832.5,5.00,000.00,023.1,022.3,000.0,031.4,024.4,13.4,0000.0,0005.03,0001.77,0001.44
2023-12-22 10:08:00,SystemResetWarning,0832.5,5.00,000.00,023.1,022.3,000.0,031.4,024.4,13.4,0000.0,0004.17,0001.81,0001.47
2023-12-22 10:09:00,SystemResetWarning,0832.5,5.00,000.00,023.1,022.3,000.0,031.4,024.4,13.5,0000.0,0004.84,0001.82,0001.51
2023-12-22 10:10:00,SystemResetWarning,0832.5,5.00,000.00,023.1,022.3,000.0,031.4,024.4,13.5,0000.0,0005.14,0001.85,0001.54
2023-12-22 10:11:00,SystemResetWarning,0832.5,4.99,000.00,023.0,022.2,000.0,031.4,024.4,13.5,0000.0,0005.52,0001.92,0001.59
2023-12-22 10:12:00,SystemResetWarning,0832.5,5.00,000.00,023.0,022.2,000.0,031.4,024.4,13.5,0000.0,0005.41,0002.01,0001.66
2023-12-22 10:13:00,SystemResetWarning,0832.6,4.99,000.00,023.0,022.2,000.0,031.4,024.4,13.5,0000.0,0004.67,0002.05,0001.68
2023-12-22 10:14:00,SystemResetWarning,0832.6,5.00,000.00,023.0,022.2,000.0,031.4,024.4,13.5,0000.0,0004.65,0002.08,0001.70
2023-12-22 10:15:00,SystemResetWarning,0832.5,5.01,000.00,023.0,022.2,000.0,031.4,024.4,13.5,0000.0,0004.60,0002.05,0001.71
2023-12-22 10:16:00,SystemResetWarning,0832.5,5.01,000.00,023.0,022.2,000.0,031.4,024.4,13.5,0000.0,0004.64,0002.06,0001.71
2023-12-22 10:17:00,SystemResetWarning,0832.6,5.00,000.00,023.0,022.2,000.0,031.4,024.4,13.4,0000.0,0004.80,0002.12,0001.72
2023-12-22 10:18:00,SystemResetWarning,0832.5,4.98,000.00,023.0,022.2,000.0,031.4,024.3,13.4,0000.0,0004.75,0002.09,0001.73
2023-12-22 10:19:00,SystemResetWarning,0832.6,5.00,000.00,023.0,022.2,000.0,031.4,024.3,13.4,0000.0,0004.70,0002.07,0001.72
2023-12-22 10:20:00,SystemResetWarning,0832.5,5.01,000.00,023.0,022.2,000.0,031.4,024.3,13.4,0000.0,0003.96,0002.03,0001.69
2023-12-22 10:21:00,SystemResetWarning,0832.5,5.01,000.00,023.0,022.2,000.0,031.4,024.3,13.4,0000.0,0003.22,0002.01,0001.68
2023-12-22 10:22:00,SystemResetWarning,0832.5,5.00,000.00,023.0,022.2,000.0,031.3,024.2,13.4,0000.0,0003.07,0002.03,0001.70
2023-12-22 10:23:00,SystemResetWarning,0832.5,4.99,000.00,022.9,022.2,000.0,031.3,024.3,13.4,0000.0,0003.07,0002.13,0001.76
2023-12-22 10:24:00,SystemResetWarning,0832.5,4.99,000.00,022.9,022.2,000.0,031.3,024.3,13.4,0000.0,0003.28,0002.19,0001.82
2023-12-22 10:25:00,SystemResetWarning,0832.5,5.00,000.00,022.9,022.2,000.0,031.3,024.2,13.4,0000.0,0004.24,0002.25,0001.90
2023-12-22 10:26:00,SystemResetWarning,0832.4,5.00,000.00,022.9,022.1,000.0,031.3,024.3,13.4,0000.0,0004.64,0002.33,0001.98
2023-12-22 10:27:00,SystemResetWarning,0832.4,5.00,000.00,022.9,022.1,000.0,031.3,024.2,13.4,0000.0,0004.81,0002.46,0002.08
2023-12-22 10:28:00,SystemResetWarning,0832.4,5.00,000.00,022.9,022.1,000.0,031.3,024.2,13.4,0000.0,0004.83,0002.52,0002.18
2023-12-22 10:29:00,SystemResetWarning,0832.4,5.00,000.00,022.9,022.1,000.0,031.3,024.3,13.4,0000.0,0004.99,0002.62,0002.24
2023-12-22 10:30:00,SystemResetWarning,0832.4,5.00,000.00,022.9,022.1,000.0,031.3,024.2,13.5,0000.0,0005.11,0002.71,0002.32
2023-12-22 10:31:00,SystemResetWarning,0832.4,5.00,000.00,022.9,022.1,000.0,031.3,024.2,13.5,0000.0,0005.34,0002.81,0002.41
2023-12-22 10:32:00,SystemResetWarning,0832.4,5.00,000.00,022.9,022.1,000.0,031.3,024.2,13.5,0000.0,0005.55,0002.93,0002.49
2023-12-22 10:33:00,SystemResetWarning,0832.4,5.00,000.00,022.9,022.1,000.0,031.3,024.2,13.5,0000.0,0006.19,0003.03,0002.57
2023-12-22 10:34:00,SystemResetWarning,0832.4,5.00,000.00,022.9,022.1,000.0,031.3,024.2,13.5,0000.0,0007.35,0003.06,0002.62
2023-12-22 10:35:00,SystemResetWarning,0832.4,5.00,000.00,022.9,022.1,000.0,031.3,024.2,13.5,0000.0,0007.42,0003.08,0002.65
2023-12-22 10:36:00,SystemResetWarning,0832.3,4.99,000.00,022.9,022.1,000.0,031.3,024.2,13.5,0000.0,0006.91,0003.10,0002.67
2023-12-22 10:37:00,SystemResetWarning,0832.3,5.00,000.00,022.9,022.1,000.0,031.2,024.3,13.5,0000.0,0006.44,0003.10,0002.66
2023-12-22 10:38:00,SystemResetWarning,0832.4,5.00,000.00,022.9,022.1,000.0,031.2,024.3,13.5,0000.0,0006.70,0003.09,0002.65
2023-12-22 10:39:00,SystemResetWarning,0832.4,5.00,000.00,022.9,022.1,000.0,031.2,024.3,13.5,0000.0,0006.95,0003.08,0002.64
2023-12-22 10:40:00,SystemResetWarning,0832.5,5.00,000.00,022.9,022.1,000.0,031.2,024.3,13.5,0000.0,0006.92,0003.06,0002.65
2023-12-22 10:41:00,SystemResetWarning,0832.5,5.00,000.00,022.9,022.1,000.0,031.2,024.3,13.5,0000.0,0007.00,0003.07,0002.65
2023-12-22 10:42:00,SystemResetWarning,0832.5,5.00,000.00,022.9,022.1,000.0,031.2,024.3,13.5,0000.0,0007.12,0003.11,0002.66
2023-12-22 10:43:00,SystemResetWarning,0832.5,5.00,000.00,022.9,022.2,000.0,031.2,024.3,13.5,0000.0,0007.15,0003.09,0002.65
2023-12-22 10:44:00,SystemResetWarning,0832.4,4.99,000.00,022.9,022.2,000.0,031.2,024.4,13.5,0000.0,0006.92,0003.05,0002.63
2023-12-22 10:45:00,SystemResetWarning,0832.4,5.00,000.00,022.9,022.2,000.0,031.2,024.3,13.5,0000.0,0005.43,0003.05,0002.61
2023-12-22 10:46:00,SystemResetWarning,0832.4,5.00,000.00,022.9,022.2,000.0,031.2,024.3,13.5,0000.0,0005.19,0003.03,0002.60
2023-12-22 10:47:00,SystemResetWarning,0832.4,5.00,000.00,022.9,022.2,000.0,031.2,024.3,13.5,0000.0,0005.03,0003.00,0002.59
2023-12-22 10:48:00,SystemResetWarning,0832.4,5.00,000.00,022.9,022.1,000.0,031.2,024.3,13.5,0000.0,0004.95,0003.00,0002.58
2023-12-22 10:49:00,SystemResetWarning,0832.4,5.00,000.00,022.9,022.1,000.0,031.2,024.3,13.5,0000.0,0004.64,0002.95,0002.56
2023-12-22 10:50:00,SystemResetWarning,0832.4,5.01,000.00,022.9,022.1,000.0,031.2,024.3,13.5,0000.0,0004.23,0002.90,0002.52
2023-12-22 10:51:00,SystemResetWarning,0832.4,5.00,000.00,022.9,022.1,000.0,031.2,024.3,13.5,0000.0,0004.46,0002.93,0002.50
2023-12-22 10:52:00,SystemResetWarning,0832.4,5.00,000.00,022.9,022.1,000.0,031.2,024.3,13.5,0000.0,0004.41,0002.91,0002.47
2023-12-22 10:53:00,SystemResetWarning,0832.4,5.00,000.00,022.9,022.1,000.0,031.2,024.3,13.5,0000.0,0004.25,0002.85,0002.43
2023-12-22 10:54:00,SystemResetWarning,0832.4,5.00,000.00,022.9,022.1,000.0,031.2,024.3,13.5,0000.0,0004.12,0002.84,0002.40
2023-12-22 10:55:00,SystemResetWarning,0832.4,5.00,000.00,022.9,022.1,000.0,031.2,024.3,13.5,0000.0,0004.12,0002.81,0002.37
2023-12-22 10:56:00,SystemResetWarning,0832.4,5.00,000.00,022.9,022.1,000.0,031.3,024.3,13.5,0000.0,0004.08,0002.76,0002.34
2023-12-22 10:57:00,SystemResetWarning,0832.3,5.00,000.00,022.9,022.1,000.0,031.3,024.3,13.6,0000.0,0003.99,0002.70,0002.30
2023-12-22 10:58:00,SystemResetWarning,0832.3,5.01,000.00,022.9,022.1,000.0,031.3,024.3,13.6,0000.0,0003.94,0002.65,0002.26
2023-12-22 10:59:00,SystemResetWarning,0832.3,5.01,000.00,022.9,022.1,000.0,031.3,024.3,13.6,0000.0,0003.90,0002.62,0002.23
